AirNav   Air Wisconsin pilot careers
 
 274 users online  

7GA8 Emory University Hospital Heliport
Atlanta, Georgia, USA

GOING TO ATLANTA?


FAA INFORMATION EFFECTIVE 09 NOVEMBER 2017

Location

FAA Identifier: 7GA8
Lat/Long: 33-47-30.9100N / 084-19-21.3100W
33-47.515167N / 084-19.355167W
33.7919194 / -84.3225861
(estimated)
Elevation: 1051 ft. / 320 m (estimated)
Variation: 02W (1985)
Time zone: UTC -5 (UTC -4 during Daylight Saving Time)
Zip code: 30322

Heliport Operations

Heliport use: Private use, MEDICAL USE.
Activation date: 05/1991
Control tower: no
ARTCC: ATLANTA CENTER
FSS: MACON FLIGHT SERVICE STATION
Attendance: UNATNDD
PPR 45 MINUTES TO LAND; CALL TRIAGE NURSE/ADMIN SUPVR 404-686-5500 ASK FOR PIC 23648 NR .
Wind indicator: yes
Segmented circle: no
Lights: ACTVT PERIMETER LIGHTS - 123.05.
Beacon: white-green-yellow (heliport)
ACTVT ROTG BCN - 123.05.

Heliport Communications

WX ASOS at PDK (5 nm N): PHONE 770-457-1691
WX ASOS at FTY (10 nm W): PHONE 404-696-5660
WX ASOS at ATL (11 nm SW): PHONE 404-762-1121
WX AWOS-3PT at RYY (19 nm NW): PHONE 770-425-3406

Nearby radio navigation aids

VOR radial/distance  VOR name  Freq  Var
PDKr198/5.2PEACHTREE VOR/DME116.6005W
ATLr035/11.3ATLANTA VORTAC116.9005W

 
NDB name  Hdg/Dist  Freq  Var  ID
ALCOVY293/28.737003WVOF ...- --- ..-.
CHERO168/28.841505WDJD -.. .--- -..
MONROE280/29.939204WJNM .--- -. --
PECAT021/30.631605WFFC ..-. ..-. -.-.
FLOWERY BRANCH223/32.236503WFKV ..-. -.- ...-
CARTERSVILLE137/35.630804WEVZ . ...- --..
BARROW COUNTY262/37.540405WBMW -... -- .--
COWETA COUNTY034/37.623403WEQQ . --.- --.-

Heliport Services

Runway Information

Helipad H1

Dimensions: 39 x 39 ft. / 12 x 12 m
Surface: concrete
ROOFTOP PAD.
Runway edge lights: PERIMETER LIGHTS.
Latitude: 33-47.515167N
Longitude: 084-19.355167W
Elevation: 1051.0 ft.
Traffic pattern: leftleft

Heliport Ownership and Management from official FAA records

Ownership: Privately-owned
Owner: EMORY UNIVERSITY HOSPITAL
1364 CLIFTON ROAD NE
ATLANTA, GA 30322
Phone 404-727-4881
Manager: EMORY UNIVERSITY HOSPITAL
1364 CLIFTON ROAD NE
ATLANTA, GA 30322
Phone (404) 712-2626
404-686-1000

Additional Remarks

FOR NOISE ABATEMENT USE STEEP APCH ANGLE, MAINTAIN 100 FT AGL IF POSSIBLE BUT NO LESS THAN 500 FT AGL UNTIL APCH ANGLE IS INTERCEPTED; ALL APCH/DEP ALONG 150/330.
MAXIMUM ACFT WEIGHT 10000 LBS.
A52-H1 11 STORY BLDG 23 FT NE; 12 FT TOWERS 29 FT SOUTH; 42 INCH FENCE 9 FT EAST; 42 INCH FENCE 0 FT SW OF HELIPAD.

Instrument Procedures

There are no published instrument procedures at 7GA8.

Some nearby airports with instrument procedures:

KPDK - Dekalb-Peachtree Airport (5 nm N)
KFTY - Fulton County Airport-Brown Field (10 nm W)
KATL - Hartsfield - Jackson Atlanta International Airport (11 nm SW)
KMGE - Dobbins Air Reserve Base (12 nm NW)
KRYY - Cobb County International Airport-McCollum Field (19 nm NW)
 
Loc | Ops | Rwys | IFR | FBO | Links
Com | Nav | Svcs | Stats | Notes


 
Area around 7GA8 (Emory University Hospital Heliport)
 
Road maps at: MapQuest Bing Google
 
Aerial photo
WARNING: Photo may not be current or correct
Aerial photo of 7GA8 (Emory University Hospital Heliport)
Do you have a better or more recent aerial photo of Emory University Hospital Heliport that you would like to share? If so, please send us your photo.

 
Sectional chart

 
Airport distance calculator
Flying to Emory University Hospital Heliport? Find the distance to fly.

From to 7GA8

Sunrise and sunset
Times for 25-Nov-2017
 Local
(UTC-5)
 Zulu
(UTC)
Morning civil twilight06:5311:53
Sunrise07:2012:20
Sunset17:2922:29
Evening civil twilight17:5622:56

Current date and time
Zulu (UTC)  25-Nov-2017 10:08:45
Local (UTC-5)  25-Nov-2017 05:08:45
 
METAR
KPDK 
6nm N 
250953Z AUTO 00000KT 7SM CLR 03/02 A2997 RMK AO2 SLP152 T00330022
KFTY 
10nm W 
250953Z 00000KT 9SM CLR 03/03 A2998 RMK AO2 SLP150 T00330028
KATL 
11nm SW 
250952Z 28003KT 10SM SCT250 06/05 A2996 RMK AO2 SLP147 T00610050
KMGE 
12nm NW 
250956Z AUTO 00000KT 10SM FEW230 04/03 A2996 RMK AO2 SLP147 T00410029 $
KRYY 
19nm NW 
250948Z AUTO 00000KT 10SM CLR 04/03 A2998 RMK AO2 SLP873 T00390028
TAF
KPDK 
6nm N 
250520Z 2506/2606 00000KT 6SM BR SCT250 TEMPO 2509/2513 4SM BR FM251300 25003KT P6SM FEW025 BKN250 FM251500 27008KT P6SM SCT120 OVC180 FM260300 31007KT P6SM SKC
KFTY 
10nm W 
250520Z 2506/2606 00000KT 6SM BR SCT250 TEMPO 2509/2513 4SM BR FM251300 25003KT P6SM FEW025 BKN250 FM251500 27007KT P6SM SCT120 OVC180 FM260300 32005KT P6SM SKC
KATL 
11nm SW 
250730Z 2508/2612 26004KT P6SM SCT250 FM251200 26005KT P6SM FEW025 BKN250 FM251500 27008KT P6SM SCT120 OVC180 FM260300 32010KT P6SM SKC
KMGE 
12nm NW 
250600Z 2506/2612 VRB06KT 9999 FEW210 QNH2996INS BECMG 2517/2518 29012G18KT 9999 FEW070 QNH2997INS BECMG 2523/2524 VRB06KT 9999 FEW095 QNH3001INS TX18/2517Z TN02/2511Z
KRYY 
19nm NW 
250520Z 2506/2606 00000KT P6SM SCT250 FM251200 26003KT P6SM FEW025 BKN250 FM251500 29008KT P6SM SCT120 OVC180 FM260200 32007KT P6SM SKC
NOTAMs
Click for the latest NOTAMs
NOTAMs are issued by the DoD/FAA and will open in a separate window not controlled by AirNav.

 

 
 

Would you like to see your business listed on this page?

 If your business provides an interesting product or service to pilots, flight crews, aircraft, or users of the Emory University Hospital Heliport, you should consider listing it here.  To start the listing process, click on the button below
 
Add a business
 

Other Pages about Emory University Hospital Heliport

Update a link
 
Copyright © AirNav, LLC. All rights reserved. Privacy Policy  Contact